EW9523 Weather Reports


Display with metric or nautical units.
time (UTC)temp
F
wind
direction
speed
MPH
gust
MPH
rain 1hr
in
rain 24hr
in
rain mn
in
humidity
%
barometer
mb
20260905081018 57 355 0.0 0.0 0.00 0.01 0.00 81 1013.3
20260905080451 57 331 0.0 0.0 0.00 0.01 0.00 80 1013.4
20260905075006 57 5 0.0 0.0 0.00 0.01 0.00 81 1013.4
20260905074005 58 5 0.0 0.0 0.00 0.01 0.00 80 1013.4
20260905073005 58 5 0.0 0.0 0.00 0.01 0.00 80 1013.4
20260905072003 58 26 0.0 0.0 0.00 0.01 0.00 80 1013.3
20260905070959 58 44 0.0 0.0 0.00 0.01 0.00 79 1013.4
20260905065959 58 57 0.0 2.0 0.00 0.01 0.01 79 1013.4
20260905065433 58 45 0.0 2.0 0.00 0.01 0.01 78 1013.4
20260905063950 58 19 2.0 3.0 0.00 0.01 0.01 79 1013.3
20260905062951 58 44 1.0 3.0 0.00 0.01 0.01 79 1013.3
20260905061950 58 57 1.0 3.0 0.00 0.01 0.01 79 1013.2
20260905060945 58 355 1.0 4.0 0.00 0.01 0.01 78 1013.2
20260905055936 59 43 2.0 4.0 0.00 0.01 0.01 77 1013.3
20260905054935 59 58 2.0 3.0 0.00 0.01 0.01 77 1013.4
20260905053934 60 27 1.0 3.0 0.00 0.01 0.01 77 1013.4
20260905052934 60 350 1.0 4.0 0.00 0.01 0.01 76 1013.4
20260905051918 60 34 0.0 0.0 0.00 0.01 0.01 75 1013.4
20260905050846 61 28 0.0 0.0 0.00 0.01 0.01 74 1013.4
20260905045836 61 16 0.0 0.0 0.00 0.01 0.01 74 1013.4
20260905044829 61 17 1.0 3.0 0.00 0.01 0.01 73 1013.3
20260905043826 61 47 2.0 4.0 0.00 0.01 0.01 71 1013.3
20260905042826 62 30 0.0 3.0 0.00 0.01 0.01 70 1013.3
20260905041826 62 344 0.0 0.0 0.00 0.01 0.01 69 1013.2
20260905041302 63 23 0.0 0.0 0.00 0.01 0.01 68 1013.1
20260905035824 64 33 0.0 2.0 0.00 0.01 0.01 67 1013.0
20260905034824 64 9 1.0 3.0 0.00 0.01 0.01 66 1012.8
20260905033820 65 11 0.0 2.0 0.00 0.01 0.01 64 1012.6
20260905032820 66 321 0.0 0.0 0.00 0.01 0.01 62 1012.5
20260905031814 66 321 1.0 4.0 0.00 0.01 0.01 61 1012.4
20260905030756 67 302 2.0 6.0 0.00 0.01 0.01 60 1012.4
20260905025747 68 300 1.0 9.0 0.00 0.01 0.01 60 1012.3
20260905025223 69 317 1.0 7.0 0.00 0.01 0.01 59 1012.2
20260905023744 69 355 1.0 5.0 0.00 0.01 0.01 58 1012.2
20260905022738 70 340 2.0 9.0 0.00 0.01 0.01 57 1012.2
20260905021732 71 274 3.0 9.0 0.00 0.01 0.01 56 1012.2
20260905020729 72 221 5.0 11.0 0.00 0.01 0.01 55 1012.0
20260905015730 72 207 5.0 13.0 0.00 0.01 0.01 55 1012.0
20260905014727 73 253 4.0 15.0 0.00 0.01 0.01 56 1012.1
20260905013726 74 279 5.0 14.0 0.00 0.01 0.01 55 1011.9
20260905012726 74 242 3.0 12.0 0.00 0.01 0.01 55 1011.8
20260905011715 74 262 5.0 11.0 0.00 0.01 0.01 55 1011.7
20260905010704 75 259 5.0 11.0 0.00 0.01 0.01 55 1011.7
20260905005703 75 319 6.0 14.0 0.00 0.01 0.01 53 1011.5
20260905004702 76 252 6.0 13.0 0.00 0.01 0.01 52 1011.6
20260905004148 77 275 5.0 11.0 0.00 0.01 0.01 49 1011.4
20260905002658 78 221 5.0 14.0 0.00 0.01 0.01 47 1011.4
20260905001657 78 257 3.0 9.0 0.00 0.01 0.01 43 1011.3
20260905000656 78 251 4.0 9.0 0.00 0.01 0.01 40 1011.4
20260905000136 78 300 4.0 9.0 0.00 0.01 0.01 39 1011.4
20260904234654 78 293 3.0 9.0 0.00 0.01 0.01 38 1011.4
20260904233654 78 275 3.0 10.0 0.00 0.01 0.01 38 1011.4
20260904232641 78 291 3.0 10.0 0.00 0.01 0.01 38 1011.5
20260904231630 78 129 1.0 4.0 0.00 0.01 0.01 38 1011.4
20260904230621 78 151 2.0 7.0 0.00 0.01 0.01 38 1011.5
20260904225619 78 268 2.0 10.0 0.00 0.01 0.01 38 1011.6
20260904225053 77 108 3.0 7.0 0.00 0.01 0.01 39 1011.6
20260904223617 77 215 2.0 6.0 0.00 0.01 0.01 39 1011.8
20260904222618 77 278 3.0 7.0 0.00 0.01 0.01 39 1012.0
20260904221613 77 222 3.0 9.0 0.00 0.01 0.01 39 1012.0
20260904220611 76 290 4.0 11.0 0.00 0.01 0.01 40 1012.0
20260904215610 77 275 4.0 11.0 0.00 0.01 0.01 40 1012.2
20260904214610 77 240 3.0 10.0 0.00 0.01 0.01 40 1012.1
20260904213607 76 211 4.0 9.0 0.00 0.01 0.01 42 1012.1
20260904212608 76 225 4.0 14.0 0.00 0.01 0.01 42 1012.3
20260904211608 75 207 3.0 8.0 0.00 0.01 0.01 43 1012.4
20260904210608 75 180 2.0 6.0 0.00 0.01 0.01 44 1012.4
20260904205607 74 198 3.0 10.0 0.00 0.01 0.01 44 1012.4
20260904204608 75 44 3.0 6.0 0.00 0.01 0.01 44 1012.4
20260904203608 74 173 3.0 8.0 0.00 0.01 0.01 45 1012.4
20260904202608 73 116 3.0 6.0 0.00 0.01 0.01 46 1012.5
20260904201606 73 42 3.0 7.0 0.00 0.01 0.01 46 1012.6
20260904200606 73 350 4.0 11.0 0.00 0.01 0.01 47 1012.7
20260904195555 72 72 4.0 11.0 0.00 0.01 0.01 47 1012.6
20260904194542 73 299 5.0 12.0 0.00 0.01 0.01 45 1012.8
20260904193542 73 292 4.0 11.0 0.00 0.01 0.01 43 1012.8
20260904192542 71 342 6.0 12.0 0.00 0.01 0.01 45 1012.8
20260904191540 71 355 4.0 10.0 0.00 0.01 0.01 47 1012.9
20260904190539 71 229 3.0 10.0 0.00 0.01 0.01 52 1012.9
20260904185536 71 281 4.0 9.0 0.00 0.01 0.01 52 1013.0
20260904184536 69 294 3.0 9.0 0.00 0.01 0.01 55 1012.9
20260904183535 68 265 4.0 11.0 0.00 0.01 0.01 56 1013.0
20260904182531 67 245 4.0 11.0 0.00 0.01 0.01 60 1013.0
20260904181529 67 343 6.0 11.0 0.00 0.01 0.01 62 1013.1
20260904180524 66 311 6.0 13.0 0.00 0.01 0.01 62 1013.2
20260904175524 65 339 6.0 13.0 0.00 0.01 0.01 65 1013.1
20260904174525 65 309 5.0 12.0 0.00 0.01 0.01 67 1013.1
20260904173523 64 302 5.0 10.0 0.00 0.01 0.01 69 1013.1
20260904173001 64 209 5.0 12.0 0.00 0.01 0.01 71 1013.0
20260904171524 63 344 5.0 10.0 0.00 0.01 0.01 72 1013.1
20260904170521 62 307 5.0 11.0 0.00 0.01 0.01 75 1013.0
20260904165826 60 342 3.0 6.0 0.00 0.01 0.01 83 1012.9
20260904165521 62 319 3.0 10.0 0.00 0.01 0.01 78 1013.0
20260904164539 61 325 3.0 8.0 0.00 0.01 0.01 80 1013.0
20260904162951 59 12 4.0 6.0 0.00 0.01 0.01 83 1012.9
20260904161513 58 17 4.0 7.0 0.00 0.01 0.01 85 1013.0
20260904160513 57 0 3.0 7.0 0.00 0.01 0.01 87 1013.1
20260904155515 56 342 3.0 6.0 0.00 0.01 0.01 88 1013.0
20260904154512 55 279 3.0 6.0 0.00 0.01 0.01 91 1013.0
20260904153510 54 315 1.0 5.0 0.00 0.01 0.01 93 1012.9
20260904153433 53 313 1.0 5.0 0.00 0.01 0.01 95 1012.9
20260904151941 52 317 1.0 4.0 0.00 0.01 0.01 96 1012.8
20260904150435 51 333 0.0 5.0 0.00 0.02 0.01 95 1012.6
20260904145418 50 336 1.0 3.0 0.00 0.02 0.01 94 1012.6
20260904144328 50 346 0.0 2.0 0.00 0.02 0.01 93 1012.4
20260904143817 50 349 0.0 2.0 0.00 0.02 0.01 94 1012.3
20260904142811 50 22 0.0 0.0 0.00 0.03 0.01 93 1012.2
20260904141325 51 22 0.0 1.0 0.00 0.03 0.01 93 1012.2
20260904140319 51 27 1.0 3.0 0.00 0.03 0.01 93 1012.1
20260904134313 51 310 2.0 3.0 0.00 0.04 0.01 94 1011.9
20260904133311 51 0 1.0 2.0 0.01 0.04 0.01 93 1011.8
20260904132307 52 333 0.0 2.0 0.01 0.05 0.01 93 1011.6
20260904131305 52 334 1.0 2.0 0.01 0.05 0.01 93 1011.5
20260904130253 52 334 0.0 1.0 0.01 0.05 0.01 92 1011.3
20260904125252 52 5 1.0 2.0 0.01 0.06 0.01 93 1011.2
20260904124253 53 335 1.0 3.0 0.01 0.06 0.01 93 1011.2
20260904123251 53 336 1.0 3.0 0.00 0.05 0.00 93 1011.2
20260904122723 53 328 1.0 3.0 0.00 0.05 0.00 93 1011.2
20260904121245 53 5 2.0 3.0 0.00 0.05 0.00 93 1011.2
20260904120245 53 40 2.0 4.0 0.00 0.05 0.00 94 1011.2
20260904115723 52 28 1.0 4.0 0.00 0.05 0.00 94 1011.1
20260904114243 52 38 2.0 3.0 0.00 0.05 0.00 93 1011.0
20260904113230 52 22 2.0 4.0 0.00 0.05 0.00 95 1011.0
20260904112738 52 28 0.0 2.0 0.00 0.05 0.00 94 1011.1
20260904112640 52 23 0.0 0.0 0.00 0.05 0.00 94 1011.0
20260904110223 52 9 0.0 3.0 0.00 0.05 0.00 94 1011.0
20260904105214 52 30 0.0 0.0 0.00 0.05 0.00 93 1011.0
20260904104210 52 30 0.0 0.0 0.00 0.05 0.00 93 1011.0
20260904103207 53 30 0.0 0.0 0.00 0.05 0.00 94 1011.1
20260904102203 53 30 0.0 0.0 0.00 0.05 0.00 94 1011.0
20260904101201 53 30 2.0 4.0 0.00 0.05 0.00 94 1011.1
20260904100158 53 49 2.0 3.0 0.00 0.05 0.00 94 1011.0
20260904095151 53 36 1.0 2.0 0.00 0.05 0.00 94 1011.0
20260904094145 53 36 2.0 3.0 0.00 0.05 0.00 93 1010.9
20260904093134 53 44 1.0 3.0 0.00 0.05 0.00 93 1010.9
20260904092132 53 116 1.0 2.0 0.00 0.05 0.00 93 1010.9
20260904091125 54 116 1.0 3.0 0.00 0.05 0.00 93 1010.8
20260904090113 53 55 0.0 0.0 0.00 0.05 0.00 93 1010.8
20260904085513 54 21 0.0 0.0 0.00 0.05 0.00 92 1010.7
20260904085140 54 21 0.0 0.0 0.00 0.05 0.00 93 1010.7
20260904083057 55 21 0.0 0.0 0.00 0.05 0.00 92 1010.7
20260904082057 55 16 1.0 3.0 0.00 0.05 0.00 93 1010.7